Location: Lombard
(41.8800°N, 88.0080°W)
Time: 19:10:17
(UTC-05:00)

Transit 2A - Pass Details

Date: 08 February 2023
Orbit: 591 x 964 km, 66.7° (Epoch: 29 March)

Event Time Altitude Azimuth Distance (km) Brightness Sun altitude
Rises 14:11:22 0° 161° (SSE) 2,953 9.5 26.3°
Reaches altitude 10° 14:14:25 10° 139° (SE) 2,112 8.5 26.0°
Maximum altitude 14:17:12 15° 103° (ESE) 1,836 7.9 25.7°
Drops below altitude 10° 14:20:06 10° 68° (ENE) 2,255 8.0 25.4°
Sets 14:23:32 0° 47° (NE) 3,272 8.7 25.0°
